Weather History for KMQS - September, 2013

Change the Weather History Date:

Monday, September 16, 2013

  Actual Average (KLNS) Record (KLNS)
Temperature  
Mean Temperature 62 °F -  
Max Temperature 69 °F 74 °F 89 °F (1993)
Min Temperature 55 °F 53 °F 39 °F (1985)
Degree Days  
Heating Degree Days 3    
Growing Degree Days 12 (Base 50)    
Moisture  
Dew Point 54 °F    
Average Humidity 79    
Maximum Humidity 100    
Minimum Humidity 53    
Precipitation  
Precipitation 0.25 in - - ()
Sea Level Pressure  
Sea Level Pressure 30.14 in    
Wind  
Wind Speed 4 mph (NNW)    
Max Wind Speed 13 mph    
Max Gust Speed 18 mph    
Visibility 10 miles    
Events Rain    
Averages and records for this station are not official NWS values.
T = Trace of Precipitation, MM = Missing Value Source: NWS Daily Summary

Daily Weather History Graph

Daily Weather History Graph

Search for Another Location

Airport or City:

Trip Planner

Search our weather history database for the weather conditions in past years. The results will help you decide how hot, cold, wet, or windy it might be!

Date:

Astronomy

Sep. 16, 2013 Rise Set
Actual Time 6:45 AM EDT 7:10 PM EDT
Civil Twilight 6:18 AM EDT 7:37 PM EDT
Nautical Twilight 5:46 AM EDT 8:09 PM EDT
Astronomical Twilight 5:13 AM EDT 8:41 PM EDT
Moon 5:17 PM EDT (9/16) 3:29 AM EDT (9/16)
Length of Visible Light 13h 18m
Length of Day
12h 24m
Waxing Gibbous, 90% of the Moon is Illuminated
Sep 16
Waxing Gibbous
Sep 19
Full
Sep 26
Last Quarter
Oct 4
New
Oct 11
First Quarter

Hourly Weather History & Observations

Time (EDT) Temp. Dew Point Humidity Pressure Visibility Wind Dir Wind Speed Gust Speed Precip Events Conditions
12:15 AM 57.2 °F 55.4 °F 94% 30.12 in 10.0 mi Calm Calm - N/A   Clear
12:35 AM 59.0 °F 55.4 °F 88% 30.12 in 10.0 mi Calm Calm - N/A   Partly Cloudy
12:55 AM 59.0 °F 55.4 °F 88% 30.11 in 10.0 mi Calm Calm - N/A   Scattered Clouds
1:15 AM 59.0 °F 55.4 °F 88% 30.11 in 10.0 mi Calm Calm - N/A   Scattered Clouds
1:35 AM 59.0 °F 55.4 °F 88% 30.10 in 10.0 mi Calm Calm - N/A   Scattered Clouds
1:55 AM 57.2 °F 55.4 °F 94% 30.10 in 10.0 mi Calm Calm - N/A   Scattered Clouds
2:15 AM 57.2 °F 55.4 °F 94% 30.10 in 10.0 mi Calm Calm - N/A   Mostly Cloudy
2:35 AM 59.0 °F 55.4 °F 88% 30.09 in 10.0 mi Calm Calm - N/A   Mostly Cloudy
2:55 AM 57.2 °F 55.4 °F 94% 30.09 in 10.0 mi Calm Calm - N/A   Scattered Clouds
3:15 AM 59.0 °F 57.2 °F 94% 30.09 in 10.0 mi Calm Calm - N/A   Scattered Clouds
3:35 AM 59.0 °F 57.2 °F 94% 30.08 in 10.0 mi Calm Calm - N/A   Partly Cloudy
3:55 AM 57.2 °F 57.2 °F 100% 30.08 in 10.0 mi WNW 3.5 mph - N/A   Partly Cloudy
4:15 AM 60.8 °F 57.2 °F 88% 30.08 in 10.0 mi West 3.5 mph - N/A   Partly Cloudy
4:35 AM 60.8 °F 57.2 °F 88% 30.08 in 10.0 mi WNW 3.5 mph - N/A   Partly Cloudy
4:55 AM 60.8 °F 57.2 °F 88% 30.08 in 10.0 mi West 3.5 mph - N/A   Partly Cloudy
5:15 AM 60.8 °F 57.2 °F 88% 30.08 in 10.0 mi West 4.6 mph - N/A   Scattered Clouds
5:35 AM 60.8 °F 57.2 °F 88% 30.08 in 10.0 mi West 3.5 mph - N/A   Mostly Cloudy
5:55 AM 60.8 °F 57.2 °F 88% 30.07 in 10.0 mi WSW 3.5 mph - N/A   Scattered Clouds
6:15 AM 60.8 °F 57.2 °F 88% 30.08 in 10.0 mi SW 3.5 mph - N/A   Scattered Clouds
6:35 AM 60.8 °F 57.2 °F 88% 30.09 in 10.0 mi West 4.6 mph - N/A   Mostly Cloudy
6:55 AM 60.8 °F 57.2 °F 88% 30.10 in 10.0 mi NW 5.8 mph - N/A   Overcast
7:15 AM 60.8 °F 57.2 °F 88% 30.10 in 10.0 mi NW 4.6 mph - N/A   Overcast
7:35 AM 62.6 °F 57.2 °F 82% 30.11 in 10.0 mi NW 10.4 mph - N/A   Mostly Cloudy
7:55 AM 60.8 °F 55.4 °F 82% 30.11 in 10.0 mi NNW 10.4 mph - N/A Rain Light Rain
8:15 AM 60.8 °F 55.4 °F 82% 30.11 in 10.0 mi North 10.4 mph - N/A Rain Light Rain
8:35 AM 60.8 °F 55.4 °F 82% 30.12 in 5.0 mi North 5.8 mph - 0.03 in Rain Light Rain
8:55 AM 59.0 °F 55.4 °F 88% 30.13 in 3.0 mi NNW 5.8 mph - 0.07 in Rain Light Rain
9:15 AM 57.2 °F 55.4 °F 94% 30.14 in 3.0 mi NW 8.1 mph - 0.04 in Rain Rain
9:35 AM 57.2 °F 55.4 °F 94% 30.13 in 4.0 mi NNW 5.8 mph - 0.12 in Rain Light Rain
9:55 AM 57.2 °F 55.4 °F 94% 30.13 in 5.0 mi NNW 4.6 mph - 0.18 in Rain Light Rain
10:15 AM 57.2 °F 55.4 °F 94% 30.14 in 8.0 mi NNW 8.1 mph - N/A   Light Drizzle
10:35 AM 57.2 °F 55.4 °F 94% 30.14 in 10.0 mi NNW 5.8 mph - N/A   Overcast
10:55 AM 57.2 °F 55.4 °F 94% 30.14 in 10.0 mi NNW 5.8 mph - N/A   Overcast
11:15 AM 57.2 °F 55.4 °F 94% 30.14 in 10.0 mi NNW 4.6 mph - N/A   Overcast
11:35 AM 59.0 °F 55.4 °F 88% 30.14 in 10.0 mi NNW 4.6 mph - N/A   Overcast
11:55 AM 60.8 °F 55.4 °F 82% 30.14 in 10.0 mi NNW 5.8 mph - N/A   Overcast
12:15 PM 60.8 °F 57.2 °F 88% 30.14 in 10.0 mi NW 4.6 mph - N/A   Overcast
12:35 PM 62.6 °F 57.2 °F 82% 30.14 in 10.0 mi NNW 6.9 mph - N/A   Overcast
12:55 PM 64.4 °F 55.4 °F 73% 30.14 in 10.0 mi North 5.8 mph - N/A   Mostly Cloudy
1:15 PM 66.2 °F 53.6 °F 64% 30.14 in 10.0 mi North 8.1 mph - N/A   Mostly Cloudy
1:35 PM 66.2 °F 53.6 °F 64% 30.14 in 10.0 mi North 9.2 mph - N/A   Partly Cloudy
1:55 PM 68.0 °F 55.4 °F 64% 30.14 in 10.0 mi NNW 9.2 mph - N/A   Clear
2:15 PM 66.2 °F 55.4 °F 68% 30.13 in 10.0 mi North 9.2 mph - N/A   Mostly Cloudy
2:35 PM 69.8 °F 53.6 °F 56% 30.13 in 10.0 mi NNW 12.7 mph - N/A   Mostly Cloudy
2:55 PM 69.8 °F 53.6 °F 56% 30.13 in 10.0 mi NNW 9.2 mph - N/A   Mostly Cloudy
3:15 PM 68.0 °F 51.8 °F 56% 30.13 in 10.0 mi NNW 10.4 mph 17.3 mph N/A   Mostly Cloudy
3:35 PM 68.0 °F 51.8 °F 56% 30.13 in 10.0 mi North 10.4 mph - N/A   Mostly Cloudy
3:55 PM 69.8 °F 51.8 °F 53% 30.13 in 10.0 mi NNW 6.9 mph 18.4 mph N/A   Mostly Cloudy
4:15 PM 69.8 °F 51.8 °F 53% 30.13 in 10.0 mi NNW 10.4 mph 17.3 mph N/A   Mostly Cloudy
4:35 PM 66.2 °F 51.8 °F 60% 30.13 in 10.0 mi NNW 9.2 mph - N/A   Mostly Cloudy
4:55 PM 66.2 °F 51.8 °F 60% 30.14 in 10.0 mi NNW 6.9 mph - N/A   Mostly Cloudy
5:15 PM 66.2 °F 53.6 °F 64% 30.14 in 10.0 mi NNW 9.2 mph - N/A   Mostly Cloudy
5:35 PM 66.2 °F 51.8 °F 60% 30.15 in 10.0 mi NNW 6.9 mph - N/A   Mostly Cloudy
5:55 PM 66.2 °F 51.8 °F 60% 30.15 in 10.0 mi NNW 8.1 mph - N/A   Mostly Cloudy
6:15 PM 66.2 °F 51.8 °F 60% 30.15 in 10.0 mi North 9.2 mph - N/A   Mostly Cloudy
6:35 PM 66.2 °F 51.8 °F 60% 30.16 in 10.0 mi NNW 5.8 mph - N/A   Scattered Clouds
6:55 PM 64.4 °F 51.8 °F 64% 30.16 in 10.0 mi NNW 4.6 mph - N/A   Clear
7:15 PM 62.6 °F 51.8 °F 68% 30.16 in 10.0 mi Calm Calm - N/A   Clear
7:35 PM 60.8 °F 51.8 °F 72% 30.17 in 10.0 mi NNW 3.5 mph - N/A   Clear
7:55 PM 60.8 °F 51.8 °F 72% 30.18 in 10.0 mi NNW 4.6 mph - N/A   Clear
8:15 PM 60.8 °F 51.8 °F 72% 30.19 in 10.0 mi North 3.5 mph - N/A   Clear
8:35 PM 60.8 °F 51.8 °F 72% 30.20 in 10.0 mi North 3.5 mph - N/A   Clear
8:55 PM 60.8 °F 51.8 °F 72% 30.21 in 10.0 mi Calm Calm - N/A   Clear
9:15 PM 59.0 °F 51.8 °F 77% 30.22 in 10.0 mi North 4.6 mph - N/A   Clear
9:35 PM 57.2 °F 51.8 °F 82% 30.23 in 10.0 mi North 4.6 mph - N/A   Clear
9:55 PM 57.2 °F 51.8 °F 82% 30.24 in 10.0 mi North 3.5 mph - N/A   Clear
10:15 PM 57.2 °F 51.8 °F 82% 30.25 in 10.0 mi North 5.8 mph - N/A   Clear
10:35 PM 57.2 °F 50.0 °F 77% 30.25 in 10.0 mi North 4.6 mph - N/A   Clear
10:55 PM 57.2 °F 50.0 °F 77% 30.26 in 10.0 mi Calm Calm - N/A   Clear
11:15 PM 57.2 °F 48.2 °F 72% 30.27 in 10.0 mi NNE 5.8 mph - N/A   Clear
11:35 PM 55.4 °F 48.2 °F 77% 30.27 in 10.0 mi East 4.6 mph - N/A   Clear
11:55 PM 55.4 °F 48.2 °F 77% 30.28 in 10.0 mi NNE 3.5 mph - N/A   Clear